Powrót do katalogu

NOAA 16 DEB

AktywnySSO
NORAD 42334·DEBRIS·🇺🇸 United States

Wystrzelony Sep 21, 2000 z Vandenberg Space Force Base

Loading…

Następne Przeloty (najbliższe 24 godziny)

TLE

ŚwieżeSource: Space-Track

Epoka: Sep 13, 2026, 15:10 UTC

1 42334U 00055QA  26256.63249056  .00003477  00000-0  11193-2 0  9990
2 42334  98.8556  28.8588 0010460 292.5363  67.4717 14.39941891524573

Śledź NOAA 16 DEB w czasie rzeczywistym z AllMySat

Download on the App Store